Tracking 30970 objects as of 3-Jul-2025
HD Live streaming from Space Station
objects crossing your sky now

FALCON 9 R/B

Track FALCON 9 R/B now!
10-day predictions


NORAD ID: 44480
Int'l Code: 2019-050B
Perigee: 207.9 km
Apogee: 19,655.0 km
Inclination: 26.2 °
Period: 345.3 minutes
Semi major axis: 16302 km
RCS: Unknown
Launch date: August 6, 2019
Source: United States (US)
Launch site: AIR FORCE EASTERN TEST RANGE (AFETR)

Note: This is a ROCKET BODY
Your satellite tracking list
Your tracking list is empty




NASA's NSSDC Master Catalog

Two Line Element Set (TLE):
1 44480U 19050B   25183.10748566  .00029170  00000-0  94399-3 0  9997
2 44480  26.1805  52.7351 5964496 340.2916   4.1066  4.17084515 65132
Source of the keplerian elements: AFSPC